,,PA_Meas_PMT16A,,PR_Meas_QMR101_102,,RH_Meas_QMH101,,SR_Meas_QMS101,,TA_Meas_QMH101,,GenWind,,GenWind,
time,status,PA,status,PR,status,RH,status,SR,status,TA,status,DirAvg,status,SpdAvg,
2016-02-20, 08:09:04,VALID,920.595,VALID,0,VALID,102.062,VALID,114.855,VALID,21.5185,VALID,153,VALID,0.504297,
2016-02-20, 08:10:04,VALID,920.594,VALID,0,VALID,102.032,VALID,123.128,VALID,21.538,VALID,181,VALID,1.31406,
2016-02-20, 08:11:04,VALID,920.589,VALID,0,VALID,102.001,VALID,135.913,VALID,21.5347,VALID,149,VALID,0.876172,
2016-02-20, 08:12:04,VALID,920.592,VALID,0,VALID,101.795,VALID,144.831,VALID,21.5347,VALID,176,VALID,0.993359,
2016-02-20, 08:13:04,VALID,920.604,VALID,0,VALID,101.003,VALID,155.682,VALID,21.5737,VALID,170,VALID,0.785156,
2016-02-20, 08:14:04,VALID,920.638,VALID,0,VALID,100.614,VALID,140.855,VALID,21.6128,VALID,172,VALID,1.57695,
2016-02-20, 08:15:04,VALID,920.699,VALID,0,VALID,101.01,VALID,133.227,VALID,21.6518,VALID,195,VALID,1.29297,
2016-02-20, 08:16:04,VALID,920.707,VALID,0,VALID,101.201,VALID,123.88,VALID,21.7103,VALID,182,VALID,0,
2016-02-20, 08:17:04,VALID,920.7,VALID,0,VALID,99.8134,VALID,127.533,VALID,21.7103,VALID,172,VALID,1.76016,
2016-02-20, 08:18:04,VALID,920.703,VALID,0,VALID,98.3268,VALID,130.756,VALID,21.7103,VALID,180,VALID,1.72578,
2016-02-20, 08:19:04,VALID,920.712,VALID,0,VALID,99.7676,VALID,132.69,VALID,21.6891,VALID,157,VALID,1.42188,
2016-02-20, 08:20:04,VALID,920.761,VALID,0,VALID,98.06,VALID,132.153,VALID,21.6696,VALID,162,VALID,0.396484,
2016-02-20, 08:21:04,VALID,920.776,VALID,0,VALID,100.4,VALID,126.136,VALID,21.6891,VALID,190,VALID,0,
2016-02-20, 08:22:04,VALID,920.824,VALID,0,VALID,100.568,VALID,121.516,VALID,21.7282,VALID,99,VALID,0.510156,
2016-02-20, 08:23:04,VALID,920.833,VALID,0,VALID,97.9761,VALID,120.871,VALID,21.7883,VALID,138,VALID,0.953516,
2016-02-20, 08:24:04,VALID,920.858,VALID,0,VALID,96.9775,VALID,122.053,VALID,21.7688,VALID,176,VALID,1.93438,
2016-02-20, 08:25:04,VALID,920.844,VALID,0,VALID,99.0739,VALID,119.367,VALID,21.7688,VALID,160,VALID,0.879687,
2016-02-20, 08:59:04,VALID,921.244,VALID,0,VALID,101.719,VALID,110.664,VALID,21.5542,VALID,83,VALID,0.101172,
2016-02-20, 09:00:04,VALID,921.261,VALID,0,VALID,102.687,VALID,112.491,VALID,21.5932,VALID,166,VALID,0,
2016-02-20, 09:30:04,VALID,921.452,VALID,0,VALID,103.152,VALID,110.02,VALID,21.5932,VALID,114,VALID,0,
2016-02-20, 09:32:04,VALID,921.441,VALID,0,VALID,102.84,VALID,124.202,VALID,21.6128,VALID,138,VALID,0,
2016-02-20, 09:33:04,VALID,921.447,VALID,0,VALID,103.122,VALID,125.814,VALID,21.6518,VALID,110,VALID,0,
2016-02-20, 09:34:04,VALID,921.446,VALID,0,VALID,102.527,VALID,119.582,VALID,21.6713,VALID,147,VALID,0,
2016-02-20, 09:35:04,VALID,921.445,VALID,0,VALID,102.771,VALID,113.35,VALID,21.7315,VALID,139,VALID,0,
2016-02-20, 09:36:04,VALID,921.455,VALID,0,VALID,102.078,VALID,113.35,VALID,21.7103,VALID,124,VALID,0.258984,
2016-02-20, 09:37:04,VALID,921.485,VALID,0,VALID,102.39,VALID,115.177,VALID,21.751,VALID,141,VALID,1.15664,
2016-02-20, 09:38:04,VALID,921.505,VALID,0,VALID,101.826,VALID,117.541,VALID,21.7298,VALID,127,VALID,0,
2016-02-20, 09:39:04,VALID,921.519,VALID,0,VALID,101.719,VALID,120.979,VALID,21.7298,VALID,121,VALID,0,
2016-02-20, 09:40:04,VALID,921.52,VALID,0,VALID,102.299,VALID,126.995,VALID,21.7688,VALID,115,VALID,0,
2016-02-20, 09:41:04,VALID,921.571,VALID,0,VALID,101.14,VALID,134.624,VALID,21.7298,VALID,124,VALID,0,
2016-02-20, 09:42:04,VALID,921.526,VALID,0,VALID,102.055,VALID,137.954,VALID,21.7883,VALID,123,VALID,0,
2016-02-20, 09:43:04,VALID,921.521,VALID,0,VALID,101.712,VALID,136.235,VALID,21.8469,VALID,162,VALID,0,
2016-02-20, 09:44:04,VALID,921.522,VALID,0,VALID,101.155,VALID,135.483,VALID,21.8859,VALID,170,VALID,0,
2016-02-20, 09:45:04,VALID,921.57,VALID,0,VALID,100.98,VALID,139.029,VALID,21.9249,VALID,167,VALID,0,
2016-02-20, 09:46:04,VALID,921.551,VALID,0,VALID,100.126,VALID,152.352,VALID,21.8859,VALID,156,VALID,0,
2016-02-20, 09:47:04,VALID,921.482,VALID,0,VALID,101.552,VALID,171.906,VALID,21.9249,VALID,149,VALID,0,
2016-02-20, 09:48:04,VALID,921.477,VALID,0,VALID,100.126,VALID,194.683,VALID,21.9233,VALID,148,VALID,0,
2016-02-20, 09:49:04,VALID,921.463,VALID,0,VALID,101.369,VALID,211.552,VALID,21.9818,VALID,148,VALID,0,
2016-02-20, 09:50:04,VALID,921.452,VALID,0,VALID,100.149,VALID,217.353,VALID,22.1005,VALID,151,VALID,0.35625,
2016-02-20, 09:51:04,VALID,921.45,VALID,0,VALID,98.3878,VALID,211.337,VALID,22.1379,VALID,165,VALID,1.25664,
2016-02-20, 09:52:04,VALID,921.441,VALID,0,VALID,97.3053,VALID,195.543,VALID,22.1396,VALID,147,VALID,0,
2016-02-20, 09:53:04,VALID,921.442,VALID,0,VALID,98.464,VALID,190.923,VALID,22.1379,VALID,146,VALID,0,
2016-02-20, 09:54:04,VALID,921.469,VALID,0,VALID,98.0371,VALID,189.634,VALID,22.1396,VALID,131,VALID,1.12383,
2016-02-20, 09:55:04,VALID,921.463,VALID,0,VALID,98.3421,VALID,189.849,VALID,22.1396,VALID,155,VALID,0,
2016-02-20, 09:56:04,VALID,921.442,VALID,0,VALID,91.7097,VALID,189.419,VALID,22.1769,VALID,169,VALID,0,
2016-02-20, 09:57:04,VALID,921.484,VALID,0,VALID,89.0186,VALID,186.196,VALID,22.2354,VALID,133,VALID,0,
2016-02-20, 09:58:04,VALID,921.414,VALID,0,VALID,91.9308,VALID,189.849,VALID,22.255,VALID,158,VALID,0,
2016-02-20, 09:59:04,VALID,921.439,VALID,0,VALID,97.7551,VALID,202.204,VALID,22.294,VALID,148,VALID,0,
2016-02-20, 10:00:04,VALID,921.437,VALID,0,VALID,88.6603,VALID,207.899,VALID,22.2159,VALID,122,VALID,1.8832,
2016-02-20, 10:01:04,VALID,921.438,VALID,0,VALID,97.1757,VALID,195.113,VALID,22.2159,VALID,136,VALID,0.766016,
2016-02-20, 10:02:04,VALID,921.442,VALID,0,VALID,89.2397,VALID,178.46,VALID,22.1786,VALID,146,VALID,2.2332,
2016-02-20, 10:03:04,VALID,921.428,VALID,0,VALID,94.8429,VALID,167.393,VALID,22.1786,VALID,104,VALID,0.146094,
2016-02-20, 10:04:04,VALID,921.426,VALID,0,VALID,96.9012,VALID,157.509,VALID,22.1591,VALID,151,VALID,0,
2016-02-20, 10:05:04,VALID,921.398,VALID,0,VALID,97.1452,VALID,151.707,VALID,22.1981,VALID,179,VALID,0,
2016-02-20, 10:06:04,VALID,921.435,VALID,0,VALID,98.525,VALID,151.062,VALID,22.1981,VALID,124,VALID,0,
2016-02-20, 10:07:04,VALID,921.426,VALID,0,VALID,99.5542,VALID,149.666,VALID,22.2176,VALID,164,VALID,0.321094,
2016-02-20, 10:08:04,VALID,921.391,VALID,0,VALID,97.6255,VALID,154.393,VALID,22.1981,VALID,115,VALID,0.630469,
2016-02-20, 10:09:04,VALID,921.393,VALID,0,VALID,97.7398,VALID,165.459,VALID,22.1786,VALID,141,VALID,0.00195313,
2016-02-20, 10:10:04,VALID,921.368,VALID,0,VALID,94.3474,VALID,182.543,VALID,22.1591,VALID,128,VALID,0.616016,
2016-02-20, 10:11:04,VALID,921.379,VALID,0,VALID,96.116,VALID,201.56,VALID,22.1591,VALID,139,VALID,0,
2016-02-20, 10:12:04,VALID,921.374,VALID,0,VALID,97.2824,VALID,214.667,VALID,22.1786,VALID,152,VALID,0,
2016-02-20, 10:13:04,VALID,921.406,VALID,0,VALID,95.1402,VALID,230.569,VALID,22.1981,VALID,127,VALID,0,
2016-02-20, 10:14:04,VALID,921.409,VALID,0,VALID,99.2111,VALID,246.255,VALID,22.1981,VALID,140,VALID,1.31016,
2016-02-20, 10:15:04,VALID,921.391,VALID,0,VALID,93.7375,VALID,258.718,VALID,22.1379,VALID,105,VALID,0.546875,
2016-02-20, 10:16:04,VALID,921.404,VALID,0,VALID,90.9702,VALID,262.479,VALID,22.1201,VALID,99,VALID,0,
2016-02-20, 10:17:04,VALID,921.411,VALID,0,VALID,96.36,VALID,255.817,VALID,22.1184,VALID,109,VALID,0,
2016-02-20, 10:18:04,VALID,921.444,VALID,0,VALID,100.98,VALID,237.982,VALID,22.2159,VALID,97,VALID,0,
2016-02-20, 10:19:04,VALID,921.45,VALID,0,VALID,94.3703,VALID,227.453,VALID,22.2354,VALID,64,VALID,0.471875,
2016-02-20, 10:20:04,VALID,921.451,VALID,0,VALID,89.9182,VALID,228.527,VALID,22.2745,VALID,57,VALID,0,
2016-02-20, 10:21:04,VALID,921.406,VALID,0,VALID,92.7236,VALID,251.735,VALID,22.333,VALID,73,VALID,0.0617188,
2016-02-20, 10:22:04,VALID,921.403,VALID,0,VALID,91.9613,VALID,250.016,VALID,22.3916,VALID,99,VALID,0,
2016-02-20, 10:23:04,VALID,921.397,VALID,0,VALID,86.1675,VALID,240.883,VALID,22.4111,VALID,107,VALID,0,
2016-02-20, 10:24:04,VALID,921.404,VALID,0,VALID,88.6756,VALID,250.016,VALID,22.4501,VALID,96,VALID,0,
2016-02-20, 10:25:04,VALID,921.383,VALID,0,VALID,85.7634,VALID,252.057,VALID,22.4501,VALID,89,VALID,1.07227,
2016-02-20, 10:26:04,VALID,921.404,VALID,0,VALID,92.3958,VALID,246.363,VALID,22.5281,VALID,48,VALID,0,
2016-02-20, 10:27:04,VALID,921.387,VALID,0,VALID,84.963,VALID,270.967,VALID,22.5477,VALID,99,VALID,0,
2016-02-20, 10:28:04,VALID,921.414,VALID,0,VALID,84.7648,VALID,303.844,VALID,22.5459,VALID,77,VALID,1.84961,
2016-02-20, 10:29:04,VALID,921.386,VALID,0,VALID,87.2729,VALID,296,VALID,22.5672,VALID,77,VALID,1.81836,
2016-02-20, 10:30:04,VALID,921.38,VALID,0,VALID,87.6159,VALID,282.57,VALID,22.6257,VALID,45,VALID,1.3125,
2016-02-20, 10:31:04,VALID,921.396,VALID,0,VALID,84.315,VALID,273.33,VALID,22.7233,VALID,106,VALID,0.263281,
2016-02-20, 10:32:04,VALID,921.357,VALID,0,VALID,85.0468,VALID,289.339,VALID,22.7818,VALID,79,VALID,0.645312,
2016-02-20, 10:33:04,VALID,921.344,VALID,0,VALID,82.9961,VALID,345.316,VALID,22.7038,VALID,63,VALID,0.0121094,
2016-02-20, 10:34:04,VALID,921.333,VALID,0,VALID,82.5235,VALID,383.565,VALID,22.7641,VALID,59,VALID,0,
2016-02-20, 10:35:04,VALID,921.347,VALID,0,VALID,84.6047,VALID,398.714,VALID,22.8404,VALID,24,VALID,0,
2016-02-20, 10:36:04,VALID,921.325,VALID,0,VALID,82.7446,VALID,372.713,VALID,22.9965,VALID,99,VALID,0,
2016-02-20, 10:37:04,VALID,921.299,VALID,0,VALID,81.4028,VALID,362.184,VALID,23.0959,VALID,84,VALID,0,
2016-02-20, 10:38:04,VALID,921.309,VALID,0,VALID,80.3584,VALID,347.357,VALID,23.1136,VALID,68,VALID,0,
2016-02-20, 10:39:04,VALID,921.288,VALID,0,VALID,81.2351,VALID,325.439,VALID,23.1331,VALID,50,VALID,0,
2016-02-20, 10:40:04,VALID,921.304,VALID,0,VALID,83.7204,VALID,286.438,VALID,23.2112,VALID,51,VALID,0,
2016-02-20, 10:41:04,VALID,921.328,VALID,0,VALID,81.3952,VALID,261.404,VALID,23.2112,VALID,80,VALID,0,
2016-02-20, 10:42:04,VALID,921.3,VALID,0,VALID,80.1755,VALID,292.777,VALID,23.1331,VALID,100,VALID,1.23438,
2016-02-20, 10:43:04,VALID,921.301,VALID,0,VALID,81.4943,VALID,374.97,VALID,23.0356,VALID,128,VALID,1.26758,
2016-02-20, 10:44:04,VALID,921.252,VALID,0,VALID,82.4167,VALID,950.639,VALID,23.0941,VALID,76,VALID,0,
2016-02-20, 10:45:04,VALID,921.221,VALID,0,VALID,82.8513,VALID,858.24,VALID,23.3283,VALID,77,VALID,0,
2016-02-20, 10:46:04,VALID,921.219,VALID,0,VALID,80.7777,VALID,511.85,VALID,23.6406,VALID,95,VALID,0.0523437,
2016-02-20, 10:47:04,VALID,921.205,VALID,0,VALID,80.0078,VALID,430.839,VALID,23.8554,VALID,51,VALID,0.116016,
2016-02-20, 10:48:04,VALID,921.156,VALID,0,VALID,77.553,VALID,448.244,VALID,24.0896,VALID,70,VALID,0,
2016-02-20, 10:49:04,VALID,921.191,VALID,0,VALID,78.3001,VALID,351.977,VALID,24.1677,VALID,61,VALID,0,
2016-02-20, 10:50:04,VALID,921.193,VALID,0,VALID,75.5938,VALID,326.514,VALID,24.0701,VALID,45,VALID,1.86172,
2016-02-20, 10:51:04,VALID,921.172,VALID,0,VALID,77.2862,VALID,302.877,VALID,23.9707,VALID,74,VALID,0,
2016-02-20, 10:52:04,VALID,921.184,VALID,0,VALID,78.1781,VALID,294.496,VALID,23.9316,VALID,51,VALID,0,
2016-02-20, 10:53:04,VALID,921.133,VALID,0,VALID,77.4463,VALID,312.869,VALID,23.8926,VALID,63,VALID,0.526953,
2016-02-20, 10:54:04,VALID,921.108,VALID,0,VALID,75.9368,VALID,327.266,VALID,23.7755,VALID,104,VALID,0.122266,
2016-02-20, 10:55:04,VALID,921.084,VALID,0,VALID,77.9647,VALID,342.845,VALID,23.7364,VALID,78,VALID,0,
2016-02-20, 10:56:04,VALID,921.057,VALID,0,VALID,75.5557,VALID,340.911,VALID,23.6974,VALID,118,VALID,0.240234,
2016-02-20, 10:57:04,VALID,921.01,VALID,0,VALID,76.9508,VALID,345.746,VALID,23.6956,VALID,34,VALID,0.637109,
2016-02-20, 10:58:04,VALID,920.992,VALID,0,VALID,76.3561,VALID,364.44,VALID,23.8536,VALID,45,VALID,0.533594,
2016-02-20, 10:59:04,VALID,920.993,VALID,0,VALID,77.1718,VALID,368.631,VALID,23.9121,VALID,134,VALID,0,
2016-02-20, 11:00:04,VALID,920.958,VALID,0,VALID,77.4005,VALID,389.474,VALID,23.795,VALID,51,VALID,0.689062,
2016-02-20, 11:01:04,VALID,920.947,VALID,0,VALID,76.318,VALID,441.153,VALID,23.8517,VALID,134,VALID,0,
2016-02-20, 11:02:04,VALID,920.934,VALID,0,VALID,75.5938,VALID,477.254,VALID,23.8944,VALID,117,VALID,0.632422,
2016-02-20, 11:03:04,VALID,920.94,VALID,0,VALID,78.788,VALID,529.363,VALID,23.8358,VALID,73,VALID,0.065625,
2016-02-20, 11:04:04,VALID,920.93,VALID,0,VALID,75.9826,VALID,731.137,VALID,23.9335,VALID,153,VALID,0,
2016-02-20, 11:05:04,VALID,920.899,VALID,0,VALID,75.0449,VALID,498.634,VALID,23.992,VALID,128,VALID,0,
2016-02-20, 11:06:04,VALID,920.902,VALID,0,VALID,76.7297,VALID,648.3,VALID,24.0115,VALID,159,VALID,0,
2016-02-20, 11:07:04,VALID,920.889,VALID,0,VALID,75.7539,VALID,533.875,VALID,23.9707,VALID,140,VALID,0.720312,
2016-02-20, 11:08:04,VALID,920.893,VALID,0,VALID,74.618,VALID,574.166,VALID,23.9316,VALID,147,VALID,0.116016,
2016-02-20, 11:09:04,VALID,920.842,VALID,0,VALID,76.4019,VALID,1029.29,VALID,23.9725,VALID,123,VALID,0.514844,
2016-02-20, 11:10:04,VALID,920.889,VALID,0,VALID,77.0117,VALID,1001.46,VALID,24.1269,VALID,115,VALID,1.90937,
2016-02-20, 11:11:04,VALID,920.921,VALID,0,VALID,75.0602,VALID,548.272,VALID,24.2263,VALID,101,VALID,0.952734,
2016-02-20, 11:12:04,VALID,920.869,VALID,0,VALID,74.5875,VALID,1295.31,VALID,24.2849,VALID,37,VALID,0.0289063,
2016-02-20, 11:13:04,VALID,920.88,VALID,0,VALID,77.1718,VALID,632.399,VALID,24.5368,VALID,86,VALID,0.997266,
2016-02-20, 11:14:04,VALID,920.846,VALID,0,VALID,75.0144,VALID,742.526,VALID,24.8121,VALID,72,VALID,1.35781,
2016-02-20, 11:15:04,VALID,920.864,VALID,0,VALID,73.7642,VALID,576.959,VALID,24.8297,VALID,78,VALID,0.687109,
2016-02-20, 11:16:04,VALID,920.787,VALID,0,VALID,73.8099,VALID,640.886,VALID,24.7321,VALID,66,VALID,2.66953,
2016-02-20, 11:17:04,VALID,920.798,VALID,0,VALID,72.6816,VALID,649.697,VALID,24.6149,VALID,56,VALID,2.12031,
2016-02-20, 11:18:04,VALID,920.837,VALID,0,VALID,73.4211,VALID,520.552,VALID,24.5173,VALID,54,VALID,3.16641,
2016-02-20, 11:19:04,VALID,920.801,VALID,0,VALID,76.0359,VALID,660.978,VALID,24.3806,VALID,48,VALID,2.68438,
2016-02-20, 11:20:04,VALID,920.843,VALID,0,VALID,73.9395,VALID,869.414,VALID,24.4197,VALID,57,VALID,2.19844,
2016-02-20, 11:21:04,VALID,920.855,VALID,0,VALID,74.1911,VALID,471.344,VALID,24.4197,VALID,82,VALID,1.52656,
2016-02-20, 11:22:04,VALID,920.811,VALID,0,VALID,75.3956,VALID,418.806,VALID,24.2245,VALID,56,VALID,2.98164,
2016-02-20, 11:23:04,VALID,920.81,VALID,0,VALID,75.2889,VALID,360.895,VALID,23.9689,VALID,68,VALID,3.09844,
2016-02-20, 11:24:04,VALID,920.825,VALID,0,VALID,75.1898,VALID,309.431,VALID,23.8322,VALID,64,VALID,0,
2016-02-20, 11:25:04,VALID,920.829,VALID,0,VALID,77.0956,VALID,273.653,VALID,23.7755,VALID,52,VALID,0.559766,
2016-02-20, 11:26:04,VALID,920.824,VALID,0,VALID,77.3548,VALID,297.182,VALID,23.8536,VALID,77,VALID,2.18711,
2016-02-20, 11:27:04,VALID,920.798,VALID,0,VALID,76.3409,VALID,346.605,VALID,23.7542,VALID,71,VALID,2.19375,
2016-02-20, 11:28:04,VALID,920.782,VALID,0,VALID,79.2988,VALID,405.913,VALID,23.6779,VALID,55,VALID,1.10703,
2016-02-20, 11:29:04,VALID,920.795,VALID,0,VALID,77.9723,VALID,404.623,VALID,23.7737,VALID,56,VALID,0.260547,
2016-02-20, 11:30:04,VALID,920.784,VALID,0,VALID,77.7588,VALID,460.6,VALID,23.9316,VALID,79,VALID,1.25039,
2016-02-20, 11:31:04,VALID,920.821,VALID,0,VALID,77.9952,VALID,381.846,VALID,23.8908,VALID,58,VALID,0.883203,
2016-02-20, 11:32:04,VALID,920.801,VALID,0,VALID,77.2938,VALID,371.854,VALID,24.0079,VALID,89,VALID,0.914844,
2016-02-20, 11:33:04,VALID,920.785,VALID,0,VALID,76.6687,VALID,433.74,VALID,23.9689,VALID,67,VALID,2.18438,
2016-02-20, 11:34:04,VALID,920.762,VALID,0,VALID,76.5238,VALID,565.463,VALID,23.7542,VALID,88,VALID,2.56211,
2016-02-20, 11:35:04,VALID,920.729,VALID,0,VALID,77.9875,VALID,416.872,VALID,23.7169,VALID,59,VALID,1.52305,
2016-02-20, 11:36:04,VALID,920.715,VALID,0,VALID,79.5199,VALID,368.953,VALID,23.6956,VALID,73,VALID,0.625781,
2016-02-20, 11:37:04,VALID,920.713,VALID,0,VALID,77.4234,VALID,383.35,VALID,23.7169,VALID,92,VALID,2.05703,
2016-02-20, 11:38:04,VALID,920.744,VALID,0,VALID,76.4019,VALID,419.235,VALID,23.6566,VALID,106,VALID,2.94492,
2016-02-20, 11:39:04,VALID,920.719,VALID,0,VALID,77.797,VALID,408.599,VALID,23.6175,VALID,116,VALID,1.55547,
2016-02-20, 11:40:04,VALID,920.738,VALID,0,VALID,77.6902,VALID,406.45,VALID,23.6761,VALID,75,VALID,2.18555,
2016-02-20, 11:41:04,VALID,920.736,VALID,0,VALID,78.14,VALID,391.193,VALID,23.6956,VALID,56,VALID,2.46914,
2016-02-20, 11:42:04,VALID,920.725,VALID,0,VALID,78.4373,VALID,364.763,VALID,23.637,VALID,50,VALID,1.51758,
2016-02-20, 11:43:04,VALID,920.71,VALID,0,VALID,78.0028,VALID,342.737,VALID,23.598,VALID,62,VALID,2.59141,
2016-02-20, 11:44:04,VALID,920.711,VALID,0,VALID,79.253,VALID,334.357,VALID,23.5004,VALID,78,VALID,0.923828,
2016-02-20, 11:45:04,VALID,920.694,VALID,0,VALID,77.9723,VALID,341.341,VALID,23.4614,VALID,97,VALID,0.0417969,
2016-02-20, 11:46:04,VALID,920.669,VALID,0,VALID,78.9557,VALID,338.44,VALID,23.6175,VALID,53,VALID,0.271094,
2016-02-20, 11:47:04,VALID,920.657,VALID,0,VALID,76.3714,VALID,333.068,VALID,23.598,VALID,62,VALID,1.86602,
2016-02-20, 11:48:04,VALID,920.619,VALID,0,VALID,77.4768,VALID,333.605,VALID,23.559,VALID,57,VALID,1.40742,
2016-02-20, 11:49:04,VALID,920.611,VALID,0,VALID,77.3396,VALID,395.706,VALID,23.559,VALID,101,VALID,0,
2016-02-20, 11:50:04,VALID,920.586,VALID,0,VALID,76.0436,VALID,416.657,VALID,23.6779,VALID,57,VALID,0.769531,
2016-02-20, 11:51:04,VALID,920.539,VALID,0,VALID,76.1503,VALID,405.805,VALID,23.7346,VALID,76,VALID,0.00664063,
2016-02-20, 11:52:04,VALID,920.584,VALID,0,VALID,77.5835,VALID,383.243,VALID,23.8322,VALID,77,VALID,0.527344,
2016-02-20, 11:53:04,VALID,920.552,VALID,0,VALID,77.2328,VALID,351.333,VALID,23.8517,VALID,51,VALID,1.95039,
2016-02-20, 11:54:04,VALID,920.534,VALID,0,VALID,76.9508,VALID,405.268,VALID,23.8536,VALID,63,VALID,1.17266,
2016-02-20, 11:55:04,VALID,920.538,VALID,0,VALID,75.7463,VALID,685.689,VALID,23.9902,VALID,58,VALID,0.188672,
2016-02-20, 11:56:04,VALID,920.464,VALID,0,VALID,75.7844,VALID,971.805,VALID,24.1055,VALID,48,VALID,2.32734,
2016-02-20, 11:57:04,VALID,920.478,VALID,0,VALID,74.7476,VALID,1198.29,VALID,24.244,VALID,48,VALID,3.46172,
2016-02-20, 11:58:04,VALID,920.447,VALID,0,VALID,75.7463,VALID,1341.51,VALID,24.5173,VALID,11,VALID,1.02148,
2016-02-20, 11:59:04,VALID,920.419,VALID,0,VALID,72.8341,VALID,564.603,VALID,24.8864,VALID,65,VALID,2.29922,
2016-02-20, 12:00:04,VALID,920.453,VALID,0,VALID,71.2561,VALID,576.637,VALID,24.7497,VALID,70,VALID,1.04805,
2016-02-20, 12:01:04,VALID,920.428,VALID,0,VALID,73.4592,VALID,894.662,VALID,24.693,VALID,64,VALID,0.175391,
2016-02-20, 12:02:04,VALID,920.43,VALID,0,VALID,71.9955,VALID,645.077,VALID,24.7888,VALID,55,VALID,1.52617,
2016-02-20, 12:03:04,VALID,920.373,VALID,0,VALID,71.7668,VALID,797.321,VALID,24.9059,VALID,10,VALID,1.11055,
2016-02-20, 12:04:04,VALID,920.402,VALID,0,VALID,71.2332,VALID,552.14,VALID,24.984,VALID,39,VALID,2.43789,
2016-02-20, 12:05:04,VALID,920.421,VALID,0,VALID,73.1467,VALID,519.908,VALID,24.9664,VALID,66,VALID,2.85313,
2016-02-20, 12:06:04,VALID,920.431,VALID,0,VALID,72.1251,VALID,558.264,VALID,24.8083,VALID,76,VALID,2.01797,
2016-02-20, 12:07:04,VALID,920.395,VALID,0,VALID,73.8252,VALID,455.765,VALID,24.693,VALID,64,VALID,1.32695,
2016-02-20, 12:08:04,VALID,920.377,VALID,0,VALID,72.4377,VALID,410.318,VALID,24.574,VALID,92,VALID,2.1707,
2016-02-20, 12:09:04,VALID,920.311,VALID,0,VALID,74.153,VALID,754.989,VALID,24.4569,VALID,106,VALID,1.30195,
2016-02-20, 12:10:04,VALID,920.36,VALID,0,VALID,72.3691,VALID,1027.35,VALID,24.4764,VALID,113,VALID,1.33828,
2016-02-20, 12:11:04,VALID,920.335,VALID,0,VALID,72.7884,VALID,630.357,VALID,24.4178,VALID,95,VALID,1.08047,
2016-02-20, 12:12:04,VALID,920.364,VALID,0,VALID,73.2458,VALID,382.168,VALID,24.4569,VALID,73,VALID,1.76797,
2016-02-20, 12:13:04,VALID,920.298,VALID,0,VALID,72.4682,VALID,348.861,VALID,24.3983,VALID,38,VALID,3.05352,
2016-02-20, 12:14:04,VALID,920.344,VALID,0,VALID,74.7247,VALID,342.845,VALID,24.2793,VALID,38,VALID,1.99336,
2016-02-20, 12:15:04,VALID,920.32,VALID,0,VALID,75.1745,VALID,374.218,VALID,24.3202,VALID,52,VALID,0.680469,
2016-02-20, 12:16:04,VALID,920.32,VALID,0,VALID,76.4171,VALID,363.796,VALID,24.3788,VALID,32,VALID,1.27852,
2016-02-20, 12:17:04,VALID,920.27,VALID,0,VALID,74.9839,VALID,315.34,VALID,24.4959,VALID,30,VALID,2.54688,
2016-02-20, 12:18:04,VALID,920.297,VALID,0,VALID,73.8709,VALID,344.134,VALID,24.4178,VALID,57,VALID,2.01406,
2016-02-20, 12:19:04,VALID,920.256,VALID,0,VALID,74.496,VALID,477.146,VALID,24.2226,VALID,98,VALID,2.5418,
2016-02-20, 12:20:04,VALID,920.208,VALID,0,VALID,75.388,VALID,1158.32,VALID,24.125,VALID,90,VALID,1.99414,
2016-02-20, 12:21:04,VALID,920.169,VALID,0,VALID,74.3436,VALID,775.188,VALID,24.3007,VALID,39,VALID,1.83242,
2016-02-20, 12:22:04,VALID,920.15,VALID,0,VALID,72.7808,VALID,1237.29,VALID,24.3965,VALID,9,VALID,1.475,
2016-02-20, 12:23:04,VALID,920.173,VALID,0,VALID,76.9736,VALID,550.099,VALID,24.7302,VALID,47,VALID,1.18008,
2016-02-20, 12:24:04,VALID,920.164,VALID,0,VALID,70.8825,VALID,552.785,VALID,24.8278,VALID,85,VALID,1.70703,
2016-02-20, 12:25:04,VALID,920.135,VALID,0,VALID,72.4834,VALID,551.173,VALID,24.8474,VALID,49,VALID,0.196875,
2016-02-20, 12:26:04,VALID,920.096,VALID,0,VALID,72.209,VALID,1000.92,VALID,24.8278,VALID,133,VALID,2.14531,
2016-02-20, 12:27:04,VALID,920.117,VALID,0,VALID,71.9498,VALID,477.254,VALID,24.6698,VALID,100,VALID,2.00664,
2016-02-20, 12:28:04,VALID,920.098,VALID,0,VALID,72.1175,VALID,407.309,VALID,24.6521,VALID,72,VALID,1.38828,
2016-02-20, 12:29:04,VALID,920.106,VALID,0,VALID,72.0108,VALID,370.027,VALID,24.5935,VALID,79,VALID,0.282031,
2016-02-20, 12:30:04,VALID,920.099,VALID,0,VALID,71.6906,VALID,357.134,VALID,24.5155,VALID,78,VALID,0.645703,
2016-02-20, 12:31:04,VALID,920.084,VALID,0,VALID,71.7135,VALID,367.771,VALID,24.4178,VALID,95,VALID,0.988281,
2016-02-20, 12:32:04,VALID,919.993,VALID,0,VALID,73.8404,VALID,612.629,VALID,24.4002,VALID,61,VALID,2.13906,
2016-02-20, 12:33:04,VALID,919.981,VALID,0,VALID,74.5265,VALID,1224.51,VALID,24.6149,VALID,110,VALID,0.353125,
2016-02-20, 12:34:04,VALID,919.956,VALID,0,VALID,72.0184,VALID,1199.69,VALID,24.9645,VALID,138,VALID,0.869922,
2016-02-20, 12:35:04,VALID,919.954,VALID,0,VALID,68.4659,VALID,464.038,VALID,25.0445,VALID,72,VALID,1.35391,
2016-02-20, 12:36:04,VALID,919.917,VALID,0,VALID,70.7224,VALID,1285.21,VALID,24.9274,VALID,107,VALID,1.88242,
2016-02-20, 12:37:04,VALID,919.869,VALID,0,VALID,73.3068,VALID,596.728,VALID,25.1226,VALID,54,VALID,0,
2016-02-20, 12:38:04,VALID,919.918,VALID,0,VALID,70.0821,VALID,502.395,VALID,25.4136,VALID,37,VALID,2.57109,
2016-02-20, 12:39:04,VALID,919.842,VALID,0,VALID,68.6031,VALID,444.591,VALID,25.2574,VALID,99,VALID,2.08125,
2016-02-20, 12:40:04,VALID,919.856,VALID,0,VALID,68.9767,VALID,434.062,VALID,24.945,VALID,39,VALID,3.07813,
2016-02-20, 12:41:04,VALID,919.866,VALID,0,VALID,70.7758,VALID,367.234,VALID,24.6912,VALID,336,VALID,1.55898,
2016-02-20, 12:42:04,VALID,919.867,VALID,0,VALID,72.3691,VALID,461.46,VALID,24.6912,VALID,42,VALID,1.72695,
2016-02-20, 12:43:04,VALID,919.891,VALID,0,VALID,71.3094,VALID,360.573,VALID,24.5935,VALID,29,VALID,2.04922,
2016-02-20, 12:44:04,VALID,919.828,VALID,0,VALID,71.5763,VALID,411.177,VALID,24.5331,VALID,54,VALID,0,
2016-02-20, 12:45:04,VALID,919.844,VALID,0,VALID,71.0045,VALID,445.881,VALID,24.6502,VALID,3,VALID,0.00078125,
2016-02-20, 12:46:04,VALID,919.802,VALID,0,VALID,71.9803,VALID,352.407,VALID,24.7674,VALID,46,VALID,0.221484,
2016-02-20, 12:47:04,VALID,919.759,VALID,0,VALID,69.7695,VALID,339.836,VALID,24.984,VALID,7,VALID,0.986328,
2016-02-20, 12:48:04,VALID,919.794,VALID,0,VALID,70.0821,VALID,343.167,VALID,25.0621,VALID,28,VALID,0.789453,
2016-02-20, 12:49:04,VALID,919.728,VALID,0,VALID,70.5242,VALID,328.877,VALID,24.8474,VALID,67,VALID,0.711719,
2016-02-20, 12:50:04,VALID,919.752,VALID,0,VALID,73.787,VALID,342.845,VALID,24.6716,VALID,23,VALID,1.97383,